Cape Cleare AK (46076)

Conditions for Wednesday

Daily
Weekly
Monthly
Marine Data Graph

Marine & Boating Location Search

Enter a coastal zip code for marine weather.

General Information

Location: 59.498 North -147.983 West
Buoy Type: 6-meter NOMAD buoy
Buoy Hull: 6N61
Payload: ARES payload
Owned by: NDBC
Windspeed: Measured by obtained from anemometer
Sea Surface: Measured by Intake
Note: Station 46076 stopped transmitting 10/28/11. This buoy will be restored to service when it can be worked into the schedule.  When the service date is known, it will be posted in the maintenance report.

Weather and Wave Data

Time Temp Humidity Wind Dominant Wave Wind Wave Wave Swell Pressure
  Air
(°F)
Water
(°F)
  Dir Speed
(kts)
Speed
(mph)
Period
(sec)
Height
(ft)
Range
(ft)
Period
(sec)
Height
(ft)
Range
(ft)
Period
(sec)
Height
(ft)
Range
(ft)
Atmo.
(in)
Tend.
(in)
20:50 35 42 100 ENE 21.4 24.6 13 12.80 exactly 12.8 5 6.56 5.74 - 7.38 13 11.48 10.66 - 12.30 29.79 +0.01
21:50 36 42 100 East 21.4 24.6 12 12.80 exactly 12.8 7 6.56 5.74 - 7.38 12 11.48 10.66 - 12.30 29.80 +0.02
22:50 36 42 100 ENE 23.3 26.8 12 14.11 exactly 14.1 6 6.56 5.74 - 7.38 12 11.48 10.66 - 12.30 29.80 +0.01
23:50 37 42 98 ENE 23.3 26.8 13 13.12 exactly 13.1 6 6.56 5.74 - 7.38 13 11.48 10.66 - 12.30 29.81 +0.01
00:50 37 42 98 ENE 25.3 29.1 12 12.47 exactly 12.5 6 6.56 5.74 - 7.38 12 9.84 9.02 - 10.66 29.81 +0.01
01:50 36 42 100 ENE 27.2 31.3 13 11.48 exactly 11.5 7 8.20 7.38 - 9.02 13 8.20 7.38 - 9.02 29.80 -
02:50 37 42 100 ENE 25.3 29.1 11 12.14 exactly 12.1 6 8.20 7.38 - 9.02 11 8.20 7.38 - 9.02 29.80 -0.01
03:50 38 42 100 ENE 25.3 29.1 13 11.48 exactly 11.5 6 8.20 7.38 - 9.02 13 8.20 7.38 - 9.02 29.79 -0.01
04:50 38 42 100 ENE 23.3 26.8 13 11.15 exactly 11.2 6 8.20 7.38 - 9.02 13 8.20 7.38 - 9.02 29.79 -0.01
05:50 41 42 100 East 9.7 11.2 10 11.15 exactly 11.2 4 3.28 2.46 - 4.10 10 9.84 9.02 - 10.66 29.81 -
06:50 40 42 100 East 11.7 13.4 13 11.15 exactly 11.2 5 3.28 2.46 - 4.10 13 9.84 9.02 - 10.66 29.80 -
07:50 40 41 100 East 13.6 15.7 13 10.83 exactly 10.8 6 6.56 5.74 - 7.38 13 9.84 9.02 - 10.66 29.79 -
08:50 40 41 98 ESE 15.6 17.9 12 10.83 exactly 10.8 6 4.92 4.10 - 5.74 12 9.84 9.02 - 10.66 29.79 -0.01
09:50 39 41 100 ESE 15.6 17.9 13 12.47 exactly 12.5 7 6.56 5.74 - 7.38 13 11.48 10.66 - 12.30 29.80 -
10:50 40 41 99 ESE 15.6 17.9 12 9.84 exactly 9.8 6 4.92 4.10 - 5.74 12 8.20 7.38 - 9.02 29.79 -
11:50 40 41 100 ESE 15.6 17.9 13 10.17 exactly 10.2 7 6.56 5.74 - 7.38 13 8.20 7.38 - 9.02 29.78 -
12:50 41 42 98 ESE 15.6 17.9 13 9.51 exactly 9.5 6 4.92 4.10 - 5.74 13 8.20 7.38 - 9.02 29.77 -0.02
13:50 41 42 99 ESE 17.5 20.1 12 8.53 exactly 8.5 7 4.92 4.10 - 5.74 12 6.56 5.74 - 7.38 29.75 -0.05
14:50 41 42 100 ESE 17.5 20.1 13 9.19 exactly 9.2 6 4.92 4.10 - 5.74 13 8.20 7.38 - 9.02 29.73 -0.06
15:50 41 42 98 SE 19.4 22.4 12 8.20 exactly 8.2 7 6.56 5.74 - 7.38 12 4.92 4.10 - 5.74 29.72 -0.06
16:50 41 42 98 SE 19.4 22.4 13 9.84 exactly 9.8 6 6.56 5.74 - 7.38 13 6.56 5.74 - 7.38 29.70 -0.04
17:50 41 42 98 SE 19.4 22.4 12 9.19 exactly 9.2 6 6.56 5.74 - 7.38 12 6.56 5.74 - 7.38 29.70 -0.03
18:50 41 42 99 SSE 17.5 20.1 12 9.84 exactly 9.8 8 6.56 5.74 - 7.38 12 6.56 5.74 - 7.38 29.71 -0.01
19:50 41 42 99 SSE 11.7 13.4 12 9.84 exactly 9.8 6 4.92 4.10 - 5.74 12 8.20 7.38 - 9.02 29.70 -
20:50 41 42 98 SSE 9.7 11.2 12 10.83 exactly 10.8 5 3.28 2.46 - 4.10 12 9.84 9.02 - 10.66 29.71 +0.01
21:50 41 42 98 SSE 11.7 13.4 12 9.51 exactly 9.5 5 3.28 2.46 - 4.10 12 8.20 7.38 - 9.02 29.71 -
22:50 41 42 99 South 7.8 8.9 10 8.86 exactly 8.9 4 1.64 0.82 - 2.46 10 8.20 7.38 - 9.02 29.71 -
23:50 41 42 99 South 7.8 8.9 12 8.86 exactly 8.9 4 1.64 0.82 - 2.46 12 8.20 7.38 - 9.02 29.71 -
00:50 41 42 99 South 5.8 6.7 12 8.53 exactly 8.5 3 1.64 0.82 - 2.46 12 8.20 7.38 - 9.02 29.72 +0.01
01:50 41 42 100 South 5.8 6.7 12 8.86 exactly 8.9 4 1.64 0.82 - 2.46 12 8.20 7.38 - 9.02 29.73 +0.02
02:50 41 42 100 South 5.8 6.7 12 8.20 exactly 8.2 4 1.64 0.82 - 2.46 12 8.20 7.38 - 9.02 29.73 +0.02
03:50 41 42 100 South 5.8 6.7 12 7.55 exactly 7.5 4 1.64 0.82 - 2.46 12 8.20 7.38 - 9.02 29.73 +0.01

Detailed Wave Spectra

Time Water Depth Wave Height Spectral Peak Period Average Wave Period Sampling Interval Wave Record
20:00 659 ft 11.78 ft 10.8 sec 6.6 sec 0.6 sec 2400 sec
22:00 659 ft 12.63 ft 12.1 sec 7.2 sec 0.6 sec 2400 sec
23:00 659 ft 14.07 ft 12.1 sec 7.2 sec 0.6 sec 2400 sec
00:00 659 ft 13.02 ft 12.9 sec 7.0 sec 0.6 sec 2400 sec
01:00 659 ft 12.50 ft 12.1 sec 6.9 sec 0.6 sec 2400 sec
02:00 659 ft 11.55 ft 12.9 sec 6.3 sec 0.6 sec 2400 sec
03:00 659 ft 12.07 ft 11.4 sec 6.6 sec 0.6 sec 2400 sec
04:00 659 ft 11.55 ft 12.9 sec 6.3 sec 0.6 sec 2400 sec
05:00 659 ft 11.12 ft 12.9 sec 6.5 sec 0.6 sec 2400 sec
06:00 659 ft 11.19 ft 10.0 sec 6.9 sec 0.6 sec 2400 sec
07:00 659 ft 11.02 ft 12.9 sec 7.2 sec 0.6 sec 2400 sec
08:00 659 ft 10.83 ft 12.9 sec 7.0 sec 0.6 sec 2400 sec
09:00 659 ft 10.93 ft 12.1 sec 7.3 sec 0.6 sec 2400 sec
10:00 659 ft 12.63 ft 12.9 sec 7.4 sec 0.6 sec 2400 sec
11:00 659 ft 9.88 ft 12.1 sec 6.6 sec 0.6 sec 2400 sec
12:00 659 ft 10.27 ft 12.9 sec 6.6 sec 0.6 sec 2400 sec
13:00 659 ft 9.45 ft 12.9 sec 6.5 sec 0.6 sec 2400 sec
14:00 659 ft 8.53 ft 12.1 sec 6.2 sec 0.6 sec 2400 sec
15:00 659 ft 9.02 ft 12.9 sec 6.5 sec 0.6 sec 2400 sec
16:00 659 ft 8.37 ft 12.1 sec 5.9 sec 0.6 sec 2400 sec
17:00 659 ft 9.74 ft 12.9 sec 6.3 sec 0.6 sec 2400 sec
18:00 659 ft 9.15 ft 12.1 sec 6.1 sec 0.6 sec 2400 sec
19:00 659 ft 9.88 ft 12.1 sec 6.3 sec 0.6 sec 2400 sec
20:00 659 ft 9.94 ft 12.1 sec 7.0 sec 0.6 sec 2400 sec
21:00 659 ft 10.83 ft 12.1 sec 7.1 sec 0.6 sec 2400 sec
22:00 659 ft 9.68 ft 12.1 sec 6.6 sec 0.6 sec 2400 sec
23:00 659 ft 8.73 ft 10.0 sec 6.4 sec 0.6 sec 2400 sec
00:00 659 ft 8.73 ft 12.1 sec 6.6 sec 0.6 sec 2400 sec
01:00 659 ft 8.56 ft 12.1 sec 6.3 sec 0.6 sec 2400 sec
02:00 659 ft 8.99 ft 12.1 sec 7.0 sec 0.6 sec 2400 sec
03:00 659 ft 8.10 ft 12.1 sec 6.8 sec 0.6 sec 2400 sec